Погода в Ореле

Погода в Ореле : погода сейчас, прогноз погоды и архив. Всё, что Вы хотите узнать о погоде в Ореле!

Хотите узнать прогноз погоды в Ореле? Тогда Вам сюда: Погода в Ореле

Поиск расширенной информации на нашем сайте:

Другие новости

Новости СМИ2

Главная страница сайта

Новости сайта

02.10.2013

Напоминаем, что на нашем новом сайте вы можете получить высокодетализированные прогнозы погоды по пунктам России, СНГ и мира (включающие важные для авиации метеовеличины, такие как направление и скорость ветра, видимость, явления погоды, количество и форма облачности, нижняя и верхняя граница облачности), а также ознакомиться с разнообразными материалами по авиационной метеорологии и подборкой полезных ссылок на эту тему.

Сайт Метеоцентр.Азия посвящён разработке технологий оптимизации авиаметеорологического обслуживания, включая проектирование и перспективное создание нескольких автоматизированных авиаметеорологических систем:
- система выпуска высокодетальных прогностических карт явлений погоды для нижнего воздушного пространства по России и ближнему зарубежью;
- система верификации прогнозов TAF (выпускаемых синоптиками официальных АМСГ РФ и ближнего зарубежья) и AUTOTAF (выпускаемых сайтом Метеоцентр.Азия) - выявление ошибок, онлайн-сопоставление с фактической погодой METAR, автоматическое внесение коррективов в прогнозы при резком отклонении фактической погоды от прогноза, подсчёт оправдываемости прогнозов по элементам и в целом;
- система обработки, анализа и отображения авиаметеорологической информации для применения провайдерами метеорологической информации.

Рекомендуем: Семейный отдых в турции с детьми www.tui.ru.

Погода в Ореле - сегодня

Время (UTC), дата Ветер
(°,м/с) 
Видим.   Явления Облачность Т
(°С)
Тd
(°С)
f(%) Тe
(°С)
Pmin
(гПа)
dP
(гПа)
Po
(мм)
O2
(г/м3)
Тmin Tmax R s Состояние
почвы
15 21.06.17 320 (СЗ) 10 км    4/4 600 м 
[Cu hum]
+20.4 +7.6 44 +20  1004.4  0.3  736  275           
18 21.06.17 290 (З) 10 км    1/1 600 м 
[Sc]
+15.6 +5.3 50 +16  1005.9  1.1  737  280    +21.5       
21 21.06.17 270 (З) 10 км    1/1 600 м 
[Sc]
+11 +5.6 69 +12  1006.9  0.6  738  285           
00 22.06.17 300 (СЗ) 10 км  в посл. час ливневой дождь  10/10 600 м кучево-дожд. 
[Cb calv]
+11.2 +7.3 77 +12  1006.7  -0.2  738  284           
03 22.06.17 320 (СЗ) 10 км    ясно 
+10.2 +6.1 76 +11  1007.8  738  286  +9.2    0.0     
06 22.06.17 310 (СЗ) 10 км    4/4 300 м 
[St]
+14.1 +6.7 61 +15  1008.8  1.4  739  282  +9.2    0.0     
09 22.06.17 280 (З) 10 км    8/8 600 м кучево-дожд. 
[Cb calv]
+17.3 +6.8 50 +18  1008.8  0.2  740  279           
12 22.06.17 280 (З) 10 км    8/8 600 м кучево-дожд. 
[Cb calv]
+19.5 +5.8 41 +20  1008.6  740  277           
15 22.06.17 280 (З) 10 км    6/5 600 м кучево-дожд., средняя 
[Cb calv|Ac trans]
+18.8 +5.6 42 +20  1008.7  0.1  740  278           
18 22.06.17 290 (З) 10 км    8/4 600 м кучево-дожд., средняя, верхняя 
[Cb calv|Ac trans|Ci fib]
+15.5 +5 50 +16  1009.3  0.3  740  281    +19.5       
21 22.06.17 290 (З) 10 км    ясно 
+9.2 +5 75 +10  1009.8  740  288           
00 23.06.17 170 (Ю) 10 км    10/8 600 м средняя 
[Sc|As op]
+9.8 +5.1 73 +10  1009.3  -0.5  739  287           
03 23.06.17 тихо ()   10 км  слаб. ливневой дождь  10/10 600 м кучево-дожд. 
[Cb calv]
+10.3 +8.6 89 +10  1009.4  0.2  740  286  +8.6    0.5     
06 23.06.17 250 (З) 10 км  в посл. час ливневой дождь  10/6 600 м кучево-дожд., средняя 
[Cb calv|As op]
+10.8 +7 77 +12  1008.9  -0.5  739  285  +8.6    0.8     
09 23.06.17 280 (З) 10 км    8/6 600 м кучево-дожд., средняя 
[Cb calv|Ac trans]
+16 +9.4 65 +18  1008.4  -0.1  739  280           
12 23.06.17 190 (Ю) 10 км    8/5 600 м кучево-дожд., средняя 
[Cb calv|Ac trans]
+16.5 +9.4 63 +18  1007.4  -0.9  738  279           
15 23.06.17 220 (ЮЗ) 10 км    8/4 600 м кучево-дожд., средняя 
[Cb calv|Ac trans]
+16.7 +9.2 61 +18  1006.7  -0.7  738  279      0.3     
18 23.06.17 150 (ЮВ) 10 км    9/4 600 м кучево-дожд., средняя, верхняя 
[Cb calv|Ac trans|Ci fib]
+14.8 +11.1 78 +19  1005.8  -1  737  280    +17.3       
21 23.06.17 160 (Ю) 10 км    9/0 средняя, верхняя 
[Ac trans|Ci fib]
+13 +11.9 93 +18  1005.7  -0.3  737  281           
00 24.06.17 340 (С) 10 км    5/3 600 м средняя 
[Sc|Ac trans]
+10.5 +9.7 95 +13  1005.8  -0.1  737  284           
03 24.06.17 тихо ()   2000 м  дымка  4/3 200 м средняя 
[St|Ac trans]
+9.4 +9 97 +10  1006.4  0.5  737  286  +9         
06 24.06.17 010 (С) 10 км    5/5 600 м кучево-дожд. 
[Cb calv]
+15.8 +9.7 67 +18  1006.1  0.2  737  279  +9         
09 24.06.17 310 (СЗ) 10 км    8/5 600 м кучево-дожд., верхняя 
[Cb calv|Ci fib]
+18.8 +7.8 49 +20  1006.7  0.9  738  277           
12 24.06.17 280 (З) 10 км    9/6 600 м кучево-дожд., верхняя 
[Cb calv|Ci fib]
+20.3 +6.7 41 +20  1006.9  0.2  738  276           
15 24.06.17 330 (СЗ) 10 км    9/3 600 м кучево-дожд., верхняя 
[Cb calv|Ci fib]
+20.8 +8.4 45 +21  1006.9  0.2  738  275           
Время (UTC), дата Ветер
(°,м/с) 
Видим.   Явления Облачность Т
(°С)
Тd
(°С)
f(%) Тe
(°С)
Pmin
(гПа)
dP
(гПа)
Po
(мм)
O2
(г/м3)
Тmin Tmax R s Состояние
почвы

Для получения пояснительной информации подведите курсор к названию столбца.

ПОГОДА в Ореле - архив

Всё, что Вы хотите узнать о погоде в Ореле - удобно и подробно!

Выберите нужную дату (начиная с 1 января 2015* года) и нажмите кнопку "Найти".
Будут отображены архивные сводки погоды по пункту Орел, начиная с указанной даты.


Отображать данные в формате CSV (для использования в таблицах Excel)


Внимание! Наш архив погоды предназначен исключительно для личного некоммерческого использования в познавательных целях. Если Вам необходимы официальные справки о состоянии погоды (для производственных, юридических, коммерческих и т.п. целей), обращайтесь в органы Росгидромета.

*Примечание: данная дата относится к архиву по метеостанциям СССР (Россия, СНГ, Балтия).
Архив по метеостанциям Зарубежной Европы и Азии (кроме Китая) хранится 10 дней, по другим регионам земного шара (Китай, Африка, Америка, Австралия, Океания) - 1 день.

Орел - район местоположения метеостанции


Название, широта, долгота, высота метеостанции:
Орел 52.9°ш. 36°д. 196 м над ур. моря [Российская Федерация]

Дополнительная информация

В oтличие oт бoльшинства пoгoдных сайтoв мы публикуем пoдрoбную метеoинфoрмацию в детальнoм прoфессиoнальнoм фoрмате.

Характеристики температуры и влажнoсти вoздуха измеряются на высoте 2 м в тени вдали oт зданий и деревьев.
Скoрoсть ветра измеряется на высoте 10 м (на урoвне рoста челoвека скoрoсть ветра ниже в 1.5-2 раза). Если метеoстанция нахoдится в гoрoде или в лесу, тo скoрoсть ветра занижена на 2-4 м/с пo сравнению с oткрытым местoм. Скoрoсть ветра над акватoриями крупных рек и oзёр, а также на вершинах хoлмoв на 2-5 м/с выше, чем в oбычных услoвиях.
Атмoсфернoе давление в разных тoчках местнoсти мoжет значительнo oтличаться oт давления на метеoстанции, в зависимoсти oт услoвий рельефа (при пoдъёме на 10 м давление пoнижается примернo на 1 мм рт.ст.).